Location: Nagano
(36.1121°N, 137.9502°E)
Time: 07:51:28
(UTC+09:00)

ISS - Visible Passes

Search period start: 18 June 2021 00:00
Search period end: 28 June 2021 00:00
Orbit: 417 x 422 km, 51.6° (Epoch: 17 June)

Date Brightness Start Highest point End Pass type
(mag) Time Alt. Az. Time Alt. Az. Time Alt. Az.
25 Jun -2.1 03:26:43 12° S 03:29:17 26° SE 03:32:08 10° ENE visible
26 Jun -1.4 02:41:16 14° SE 02:41:59 15° SE 02:43:55 10° E visible
27 Jun -3.8 03:28:43 19° SW 03:31:01 86° NW 03:34:23 10° NE visible
